Weather History for Gainesville, FL

Change the Weather History Date:

Sunday, December 9, 2012

  Actual Average Record
Temperature  
Mean Temperature 67 °F 57 °F  
Max Temperature 77 °F 69 °F 87 °F (1951)
Min Temperature 56 °F 46 °F 25 °F (1917)
Degree Days  
Heating Degree Days 0 9  
Month to date heating degree days 6 70  
Since 1 July heating degree days 199 231  
Cooling Degree Days 2 1  
Month to date cooling degree days 9 9  
Year to date cooling degree days 2971 2625  
Growing Degree Days 17 (Base 50)    
Moisture  
Dew Point 62 °F    
Average Humidity 85    
Maximum Humidity 100    
Minimum Humidity 69    
Precipitation  
Precipitation 0.00 in 0.08 in 1.54 in (1969)
Month to date precipitation T 0.67  
Year to date precipitation 49.31 45.60  
Snow  
Snow 0.00 in 0.00 in 0.00 in ()
Month to date snowfall 0.0 0.0  
Since 1 July snowfall 0.0 0.0  
Snow Depth 0.00 in    
Sea Level Pressure  
Sea Level Pressure 30.05 in    
Wind  
Wind Speed 2 mph (WNW)    
Max Wind Speed 8 mph    
Max Gust Speed 10 mph    
Visibility 5 miles    
Events Fog    
T = Trace of Precipitation, MM = Missing Value Source: NWS Daily Summary

Daily Weather History Graph

Daily Weather History Graph

Search for Another Location

Airport:

Trip Planner

Search our weather history database for the weather conditions in past years. The results will help you decide how hot, cold, wet, or windy it might be!

Date:

Astronomy

Dec. 09, 2012 Rise Set
Actual Time 7:13 AM EST 5:30 PM EST
Civil Twilight 6:46 AM EST 5:56 PM EST
Nautical Twilight 6:17 AM EST 6:26 PM EST
Astronomical Twilight 5:48 AM EST 6:55 PM EST
Moon 2:58 AM EST (12/9) 2:24 PM EST (12/9)
Length of Visible Light 11h 09m
Length of Day
10h 17m
Waning Crescent, 19% of the Moon is Illuminated
Dec 9
Waning Crescent
Dec 13
New
Dec 20
First Quarter
Dec 28
Full
Jan 4
Last Quarter

Hourly Weather History & Observations

Time (EST) Temp. Dew Point Humidity Pressure Visibility Wind Dir Wind Speed Gust Speed Precip Events Conditions
12:06 AM 60.8 °F 60.8 °F 100% 30.07 in 0.2 mi Calm Calm - N/A Fog Fog
12:41 AM 62.6 °F 60.8 °F 94% 30.07 in 0.2 mi Calm Calm - N/A Fog Fog
12:53 AM 62.1 °F 61.0 °F 96% 30.06 in 0.2 mi Calm Calm - N/A Fog Fog
1:53 AM 63.0 °F 62.1 °F 97% 30.06 in 0.2 mi Calm Calm - N/A Fog Fog
2:53 AM 63.0 °F 62.1 °F 97% 30.04 in 0.2 mi ENE 3.5 mph - N/A Fog Fog
3:22 AM 62.6 °F 62.6 °F 100% 30.05 in 0.5 mi Calm Calm - N/A Fog Fog
3:53 AM 63.0 °F 62.1 °F 97% 30.04 in 0.5 mi Calm Calm - N/A Fog Fog
4:13 AM 62.6 °F 62.6 °F 100% 30.05 in 1.5 mi Calm Calm - N/A   Overcast
4:23 AM 62.6 °F 62.6 °F 100% 30.05 in 2.5 mi Calm Calm - N/A   Overcast
4:33 AM 62.6 °F 62.6 °F 100% 30.05 in 4.0 mi Calm Calm - N/A   Overcast
4:53 AM 63.0 °F 62.1 °F 97% 30.04 in 8.0 mi Calm Calm - N/A   Overcast
5:43 AM 62.6 °F 62.6 °F 100% 30.05 in 1.8 mi Calm Calm - N/A   Overcast
5:53 AM 62.1 °F 61.0 °F 96% 30.05 in 0.5 mi Calm Calm - N/A Fog Fog
6:28 AM 62.6 °F 60.8 °F 94% 30.06 in 2.0 mi Calm Calm - N/A   Overcast
6:36 AM 62.6 °F 60.8 °F 94% 30.06 in 5.0 mi Calm Calm - N/A   Overcast
6:53 AM 62.1 °F 61.0 °F 96% 30.06 in 2.5 mi Calm Calm - N/A   Overcast
7:06 AM 62.6 °F 62.6 °F 100% 30.07 in 5.0 mi Calm Calm - N/A   Overcast
7:53 AM 63.0 °F 62.1 °F 97% 30.08 in 8.0 mi Calm Calm - N/A   Mostly Cloudy
8:35 AM 64.4 °F 62.6 °F 94% 30.09 in 7.0 mi Calm Calm - N/A   Overcast
8:53 AM 64.9 °F 64.0 °F 97% 30.09 in 10.0 mi Calm Calm - N/A   Mostly Cloudy
9:00 AM 66.2 °F 64.4 °F 94% 30.10 in 10.0 mi Calm Calm - N/A   Mostly Cloudy
9:53 AM 68.0 °F 64.9 °F 90% 30.12 in 10.0 mi Calm Calm - N/A   Overcast
10:53 AM 70.0 °F 66.0 °F 87% 30.11 in 10.0 mi SE 3.5 mph - N/A   Overcast
11:53 AM 72.0 °F 66.0 °F 81% 30.09 in 10.0 mi WSW 6.9 mph - N/A   Overcast
12:50 PM 73.4 °F 66.2 °F 78% 30.06 in 10.0 mi WNW 5.8 mph - N/A   Overcast
12:53 PM 73.9 °F 66.9 °F 79% 30.05 in 10.0 mi West 4.6 mph - N/A   Overcast
1:01 PM 73.4 °F 66.2 °F 78% 30.05 in 10.0 mi West 5.8 mph - N/A   Overcast
1:53 PM 73.9 °F 66.0 °F 76% 30.04 in 10.0 mi West 5.8 mph - N/A   Overcast
2:35 PM 75.2 °F 66.2 °F 73% 30.03 in 10.0 mi NW 4.6 mph - N/A   Scattered Clouds
2:53 PM 77.0 °F 66.0 °F 69% 30.02 in 10.0 mi Calm Calm - N/A   Mostly Cloudy
3:15 PM 77.0 °F 64.4 °F 65% 30.03 in 10.0 mi West 4.6 mph - N/A   Scattered Clouds
3:49 PM 77.0 °F 64.4 °F 65% 30.02 in 10.0 mi NNW 5.8 mph - N/A   Mostly Cloudy
3:53 PM 75.9 °F 64.9 °F 69% 30.01 in 10.0 mi NW 6.9 mph - N/A   Mostly Cloudy
4:07 PM 75.2 °F 66.2 °F 73% 30.02 in 10.0 mi Calm Calm - N/A   Scattered Clouds
5:53 PM 69.1 °F 64.0 °F 84% 30.04 in 10.0 mi Calm Calm - N/A   Scattered Clouds
6:53 PM 66.9 °F 64.0 °F 90% 30.04 in 10.0 mi Calm Calm - N/A   Clear
7:43 PM 64.4 °F 62.6 °F 94% 30.05 in 1.8 mi Calm Calm - N/A   Clear
7:53 PM 63.0 °F 62.1 °F 97% 30.05 in 1.2 mi Calm Calm - N/A   Clear
8:01 PM 62.6 °F 62.6 °F 100% 30.05 in 3.0 mi Calm Calm - N/A   Clear
8:53 PM 61.0 °F 60.1 °F 97% 30.05 in 3.0 mi WSW 3.5 mph - N/A   Clear
9:53 PM 62.1 °F 61.0 °F 96% 30.04 in 8.0 mi West 3.5 mph - N/A   Clear
10:30 PM 59.0 °F 57.2 °F 94% 30.04 in 6.0 mi Calm Calm - N/A   Partly Cloudy
10:53 PM 59.0 °F 57.9 °F 96% 30.04 in 6.0 mi Calm Calm - N/A   Mostly Cloudy
11:00 PM 59.0 °F 57.2 °F 94% 30.05 in 0.5 mi Calm Calm - N/A Fog Fog
11:10 PM 57.2 °F 55.4 °F 94% 30.05 in 0.2 mi Calm Calm - N/A Fog Fog
11:19 PM 57.2 °F 55.4 °F 94% 30.04 in 0.2 mi Calm Calm - N/A Fog Fog
11:53 PM 57.9 °F 57.0 °F 97% 30.04 in 0.2 mi Calm Calm - N/A Fog Fog